TimePDT,TemperatureF,Dew PointF,Humidity,Sea Level PressureIn,VisibilityMPH,Wind Direction,Wind SpeedMPH,Gust SpeedMPH,PrecipitationIn,Events,Conditions,WindDirDegrees,DateUTC
12:53 AM,66.9,51.1,57,29.85,10.0,Calm,Calm,-,N/A,,Clear,0,2012-10-02 07:53:00
1:53 AM,64.9,46.9,52,29.86,10.0,Calm,Calm,-,N/A,,Clear,0,2012-10-02 08:53:00
2:53 AM,64.0,51.1,63,29.85,10.0,Calm,Calm,-,N/A,,Clear,0,2012-10-02 09:53:00
3:53 AM,61.0,52.0,72,29.85,10.0,SE,3.5,-,N/A,,Clear,130,2012-10-02 10:53:00
4:53 AM,61.0,52.0,72,29.85,10.0,Calm,Calm,-,N/A,,Clear,0,2012-10-02 11:53:00
5:53 AM,62.1,52.0,70,29.86,10.0,Calm,Calm,-,N/A,,Clear,0,2012-10-02 12:53:00
6:53 AM,59.0,53.1,81,29.87,10.0,Calm,Calm,-,N/A,,Clear,0,2012-10-02 13:53:00
7:53 AM,62.1,53.1,72,29.88,10.0,Calm,Calm,-,N/A,,Clear,0,2012-10-02 14:53:00
8:53 AM,70.0,52.0,53,29.88,7.0,ESE,3.5,-,N/A,,Clear,120,2012-10-02 15:53:00
9:53 AM,77.0,51.1,40,29.88,9.0,Calm,Calm,-,N/A,,Clear,0,2012-10-02 16:53:00
10:53 AM,82.0,51.1,34,29.88,10.0,Calm,Calm,-,N/A,,Clear,0,2012-10-02 17:53:00
11:53 AM,86.0,51.1,30,29.86,10.0,Calm,Calm,-,N/A,,Clear,0,2012-10-02 18:53:00
12:53 PM,91.0,51.1,25,29.84,10.0,Variable,3.5,-,N/A,,Clear,0,2012-10-02 19:53:00
1:53 PM,95.0,48.9,21,29.81,10.0,NNW,4.6,-,N/A,,Clear,330,2012-10-02 20:53:00
2:53 PM,97.0,48.0,19,29.79,10.0,Calm,Calm,-,N/A,,Clear,0,2012-10-02 21:53:00
3:53 PM,99.0,46.9,17,29.77,10.0,NW,4.6,-,N/A,,Clear,310,2012-10-02 22:53:00
4:53 PM,99.0,45.0,16,29.76,10.0,NNW,8.1,-,N/A,,Clear,340,2012-10-02 23:53:00
5:53 PM,96.1,46.0,18,29.76,10.0,NW,5.8,-,N/A,,Clear,310,2012-10-03 00:53:00
6:53 PM,86.0,53.1,32,29.75,10.0,Calm,Calm,-,N/A,,Clear,0,2012-10-03 01:53:00
7:53 PM,81.0,55.0,41,29.76,10.0,Calm,Calm,-,N/A,,Clear,0,2012-10-03 02:53:00
8:53 PM,75.9,55.0,48,29.77,10.0,Calm,Calm,-,N/A,,Clear,0,2012-10-03 03:53:00
9:53 PM,73.0,55.0,53,29.78,10.0,Calm,Calm,-,N/A,,Clear,0,2012-10-03 04:53:00
10:53 PM,69.1,57.0,65,29.79,10.0,ESE,5.8,-,N/A,,Clear,110,2012-10-03 05:53:00
11:53 PM,66.0,57.9,75,29.79,10.0,Calm,Calm,-,N/A,,Clear,0,2012-10-03 06:53:00